Flag for U.S.A. Weather past 2 weeks in Palestine, Texas, U.S.A.

Now
92 °F

Sunny.


Feels Like: 93 °F
Forecast: 70 / 91 °F
Wind: 3 mph from Northeast

Location: Palestine Municipal Airport

Current Time: Aug 31, 2015 at 5:42:29 PM

Latest Report: Aug 31, 2015 at 4:35 PM


Visibility: 10 mi

Pressure: 29.98 "Hg

Humidity: 36%

Dew point: 62 °F

Location of PalestineLocation

Historic Weather in Palestine — Graph

°F

Palestine temperature yesterday

Maximum temperature yesterday: 88 °F (at 3:35 PM)
Minimum temperature yesterday: 88 °F (at 3:35 PM)
Average temperature yesterday: 88 °F

Past Weeks' High & Low Weather Summary

 TemperatureHumidityPressure
High98 °F (Aug 24, 3:55 PM)100% (Aug 21, 6:35 AM)30.18 "Hg (Aug 21, 6:35 AM)
Low62 °F (Aug 27, 7:15 AM)24% (Aug 26, 2:55 PM)29.76 "Hg (Aug 18, 6:55 PM)
Average81 °F71%29.99 "Hg
* Reported Aug 16 4:15 PM — Aug 31 4:15 PM, Palestine, Weather by CustomWeather, © 2015

Note: Actual official high and low records may vary slightly from our data, if they occured in-between our weather recording intervals... More about our weather records

Advertising

Palestine weather history for previous 24 hours

 ConditionsComfort  
Time TempWeatherWind HumidityBarometerVisibility
4:15 PM
Mon, Aug 31
92 °FSunny.6 mph40%29.98 "Hg10 mi
3:55 PM92 °FScattered clouds.3 mph41%29.99 "Hg10 mi
3:35 PM91 °FSunny.6 mph40%30.00 "Hg10 mi
3:15 PM91 °FScattered clouds.6 mph41%30.01 "Hg10 mi
2:55 PM91 °FScattered clouds.3 mph39%30.02 "Hg10 mi
2:35 PM90 °FScattered clouds.No wind43%30.03 "Hg10 mi
2:15 PM90 °FScattered clouds.3 mph42%30.04 "Hg10 mi
1:55 PM88 °FScattered clouds.No wind47%30.05 "Hg10 mi
1:35 PM89 °FScattered clouds.3 mph49%30.04 "Hg10 mi
1:15 PM87 °FScattered clouds.No wind51%30.05 "Hg10 mi
12:55 PM88 °FScattered clouds.3 mph53%30.05 "Hg10 mi
12:35 PM86 °FScattered clouds.5 mph54%30.05 "Hg10 mi
12:15 PM85 °FBroken clouds.3 mph58%30.07 "Hg10 mi
11:55 AM84 °FBroken clouds.No wind64%30.07 "Hg10 mi
11:35 AM84 °FScattered clouds.5 mph64%30.08 "Hg10 mi
11:15 AM83 °FBroken clouds.3 mph68%30.08 "Hg10 mi
10:55 AM82 °FScattered clouds.7 mph71%30.08 "Hg10 mi
10:35 AM82 °FSunny.3 mph72%30.08 "Hg10 mi
10:15 AM81 °FScattered clouds.No wind75%30.08 "Hg10 mi
9:55 AM80 °FScattered clouds.5 mph78%30.08 "Hg10 mi
9:35 AM78 °FPartly sunny.3 mph80%30.08 "Hg10 mi
9:15 AM77 °FScattered clouds.3 mph81%30.07 "Hg10 mi
Weather by CustomWeather, © 2015

See weather overviewHow to use our weather pages